Location: ?????????
(44.2517°N, 135.2292°E)
Time: 15:07:35
(UTC+00:00)

ARIANE 6 FM1 Upper Stage - Pass Details

Date: 21 January 2026
Orbit: 522 x 609 km, 62.0° (Epoch: 9 February)

Event Time Altitude Azimuth Distance (km) Brightness Sun altitude
Rises 09:32:01 0° 193° (SSW) 2,716 6.5 -17.5°
Reaches altitude 10° 09:34:25 10° 183° (S) 1,811 5.4 -17.9°
Enters shadow 09:37:38 30° 132° (SE) 981 3.5 -18.5°
